Weather History for Boonville, MO

Change the Weather History Date:

Tuesday, October 25, 2011

  Actual Average Record
Temperature  
Mean Temperature 70 °F -  
Max Temperature 84 °F 63 °F 98 °F (2013)
Min Temperature 57 °F 41 °F 26 °F (2013)
Cooling Degree Days 6    
Growing Degree Days 20 (Base 50)    
Moisture  
Dew Point 51 °F    
Average Humidity 53    
Maximum Humidity 75    
Minimum Humidity 33    
Precipitation  
Precipitation 0.00 in - - ()
Sea Level Pressure  
Sea Level Pressure 29.88 in    
Wind  
Wind Speed 10 mph (South)    
Max Wind Speed 23 mph    
Max Gust Speed 31 mph    
Visibility 10 miles    
Events      
Averages and records for this station are not official NWS values.
T = Trace of Precipitation, MM = Missing Value Source: NWS Daily Summary

Daily Weather History Graph

Daily Weather History Graph

Search for Another Location

Airport:

Trip Planner

Search our weather history database for the weather conditions in past years. The results will help you decide how hot, cold, wet, or windy it might be!

Date:

Astronomy

Oct. 25, 2011 Rise Set
Actual Time 7:30 AM CDT 6:18 PM CDT
Civil Twilight 7:02 AM CDT 6:46 PM CDT
Nautical Twilight 6:31 AM CDT 7:17 PM CDT
Astronomical Twilight 6:00 AM CDT 7:48 PM CDT
Moon 6:03 AM CDT (10/25) 5:20 PM CDT (10/25)
Length of Visible Light 11h 43m
Length of Day
10h 48m
Waning Crescent, 2% of the Moon is Illuminated
Oct 25
Waning Crescent
Oct 26
New
Nov 2
First Quarter
Nov 10
Full
Nov 18
Last Quarter

Hourly Weather History & Observations

Time (CDT) Temp. Heat Index Dew Point Humidity Pressure Visibility Wind Dir Wind Speed Gust Speed Precip Events Conditions
12:15 AM 62.2 °F - 46.0 °F 55% 30.03 in 10.0 mi South 6.9 mph - N/A   Clear
12:35 AM 62.4 °F - 47.1 °F 57% 30.03 in 10.0 mi South 5.8 mph - N/A   Clear
12:55 AM 62.4 °F - 48.0 °F 59% 30.02 in 10.0 mi South 6.9 mph - N/A   Clear
1:15 AM 62.4 °F - 48.6 °F 60% 30.02 in 10.0 mi South 6.9 mph - N/A   Clear
1:35 AM 62.2 °F - 48.9 °F 62% 30.02 in 10.0 mi South 6.9 mph - N/A   Clear
1:55 AM 60.8 °F - 49.1 °F 65% 30.02 in 10.0 mi South 6.9 mph - N/A   Clear
2:15 AM 59.0 °F - 49.1 °F 70% 30.02 in 10.0 mi SSE 8.1 mph - N/A   Clear
2:35 AM 59.0 °F - 49.1 °F 70% 30.01 in 10.0 mi South 6.9 mph - N/A   Clear
2:55 AM 59.9 °F - 49.5 °F 68% 30.00 in 10.0 mi South 8.1 mph - N/A   Clear
3:15 AM 59.5 °F - 49.6 °F 70% 30.00 in 10.0 mi South 8.1 mph - N/A   Clear
3:35 AM 58.6 °F - 49.6 °F 72% 29.99 in 10.0 mi SSE 10.4 mph - N/A   Clear
3:55 AM 58.3 °F - 50.0 °F 74% 29.99 in 10.0 mi SSE 6.9 mph - N/A   Clear
4:15 AM 57.9 °F - 50.0 °F 75% 29.98 in 10.0 mi SSE 9.2 mph - N/A   Clear
4:35 AM 57.9 °F - 50.2 °F 75% 29.98 in 10.0 mi SSE 9.2 mph - N/A   Clear
4:55 AM 58.3 °F - 50.4 °F 75% 29.97 in 10.0 mi SSE 9.2 mph - N/A   Clear
5:35 AM 58.3 °F - 50.2 °F 74% 29.96 in 10.0 mi SSE 9.2 mph - N/A   Clear
5:55 AM 58.6 °F - 50.0 °F 73% 29.96 in 10.0 mi SSE 8.1 mph - N/A   Clear
6:15 AM 58.5 °F - 49.5 °F 72% 29.95 in 10.0 mi SSE 6.9 mph - N/A   Clear
6:35 AM 58.5 °F - 49.3 °F 72% 29.95 in 10.0 mi SSE 10.4 mph - N/A   Clear
6:55 AM 59.4 °F - 49.3 °F 69% 29.94 in 10.0 mi SSE 12.7 mph - N/A   Clear
7:15 AM 60.1 °F - 49.1 °F 67% 29.94 in 10.0 mi SSE 10.4 mph - N/A   Clear
7:35 AM 59.9 °F - 48.7 °F 67% 29.93 in 10.0 mi SSE 11.5 mph - N/A   Clear
7:55 AM 59.7 °F - 48.6 °F 67% 29.94 in 7.0 mi South 10.4 mph - N/A   Scattered Clouds
8:15 AM 61.0 °F - 48.4 °F 63% 29.93 in 10.0 mi South 11.5 mph - N/A   Clear
8:35 AM 62.2 °F - 48.4 °F 60% 29.93 in 10.0 mi South 13.8 mph - N/A   Clear
8:55 AM 63.9 °F - 48.2 °F 57% 29.92 in 10.0 mi South 13.8 mph 18.4 mph N/A   Clear
9:15 AM 65.8 °F - 48.6 °F 54% 29.92 in 10.0 mi South 9.2 mph - N/A   Clear
9:35 AM 68.0 °F - 49.5 °F 51% 29.91 in 10.0 mi South 15.0 mph 18.4 mph N/A   Clear
9:55 AM 70.0 °F - 50.2 °F 49% 29.90 in 10.0 mi South 12.7 mph 20.7 mph N/A   Clear
10:15 AM 71.6 °F - 50.7 °F 48% 29.90 in 10.0 mi South 13.8 mph 20.7 mph N/A   Clear
10:35 AM 72.9 °F - 51.1 °F 46% 29.89 in 10.0 mi SSW 11.5 mph 21.9 mph N/A   Clear
10:55 AM 73.0 °F - 51.6 °F 47% 29.88 in 10.0 mi South 10.4 mph 23.0 mph N/A   Clear
11:35 AM 75.6 °F - 52.3 °F 44% 29.87 in 10.0 mi South 16.1 mph 21.9 mph N/A   Clear
11:55 AM 76.6 °F - 52.9 °F 43% 29.85 in 10.0 mi SSW 17.3 mph 28.8 mph N/A   Clear
12:15 PM 79.2 °F - 53.2 °F 41% 29.83 in 10.0 mi South 18.4 mph 25.3 mph N/A   Clear
12:35 PM 79.3 °F - 52.9 °F 40% 29.82 in 10.0 mi South 21.9 mph 29.9 mph N/A   Clear
12:55 PM 79.9 °F - 53.2 °F 40% 29.80 in 10.0 mi SSW 16.1 mph 29.9 mph N/A   Clear
1:15 PM 81.1 °F 80.6 °F 53.6 °F 38% 29.78 in 10.0 mi South 23.0 mph 31.1 mph N/A   Clear
1:35 PM 81.7 °F 81.0 °F 53.4 °F 38% 29.77 in 10.0 mi South 18.4 mph 27.6 mph N/A   Clear
2:15 PM 82.4 °F 81.4 °F 53.6 °F 37% 29.75 in 10.0 mi SSW 12.7 mph 31.1 mph N/A   Clear
2:35 PM 82.6 °F 81.6 °F 54.0 °F 37% 29.74 in 10.0 mi SSW 12.7 mph 25.3 mph N/A   Clear
2:55 PM 82.9 °F 81.9 °F 54.0 °F 37% 29.73 in 10.0 mi SSW 12.7 mph 23.0 mph N/A   Clear
3:15 PM 83.7 °F 82.3 °F 53.1 °F 35% 29.72 in 10.0 mi SSW 16.1 mph 29.9 mph N/A   Clear
3:35 PM 84.0 °F - 52.3 °F 33% 29.72 in 10.0 mi SSW 21.9 mph 29.9 mph N/A   Clear
3:55 PM 84.0 °F - 52.3 °F 33% 29.72 in 10.0 mi SSW 18.4 mph 25.3 mph N/A   Clear
4:15 PM 84.4 °F - 52.7 °F 33% 29.71 in 10.0 mi SSW 15.0 mph 27.6 mph N/A   Clear
4:35 PM 84.2 °F - 52.0 °F 33% 29.72 in 10.0 mi SW 16.1 mph 31.1 mph N/A   Clear
4:55 PM 84.0 °F - 52.2 °F 33% 29.73 in 10.0 mi SW 11.5 mph 19.6 mph N/A   Scattered Clouds
5:15 PM 83.5 °F - 51.6 °F 33% 29.73 in 10.0 mi SSW 15.0 mph 23.0 mph N/A   Scattered Clouds
5:35 PM 82.9 °F - 51.8 °F 34% 29.74 in 10.0 mi SW 15.0 mph 24.2 mph N/A   Scattered Clouds
5:55 PM 82.0 °F - 51.8 °F 35% 29.75 in 10.0 mi SSW 15.0 mph 24.2 mph N/A   Mostly Cloudy
6:15 PM 81.1 °F - 52.3 °F 37% 29.75 in 10.0 mi SSW 12.7 mph 19.6 mph N/A   Scattered Clouds
6:35 PM 80.2 °F 80.0 °F 53.2 °F 39% 29.75 in 10.0 mi SSW 9.2 mph - N/A   Mostly Cloudy
6:55 PM 79.5 °F - 53.6 °F 41% 29.76 in 10.0 mi SSW 12.7 mph 17.3 mph N/A   Overcast
7:15 PM 79.3 °F - 54.0 °F 41% 29.76 in 10.0 mi SSW 9.2 mph - N/A   Overcast
7:35 PM 78.3 °F - 54.5 °F 44% 29.76 in 10.0 mi SSW 9.2 mph - N/A   Overcast
7:55 PM 78.1 °F - 54.9 °F 45% 29.77 in 10.0 mi SSW 8.1 mph - N/A   Overcast
8:15 PM 77.7 °F - 54.9 °F 45% 29.78 in 10.0 mi SSW 9.2 mph - N/A   Overcast
8:55 PM 77.0 °F - 54.9 °F 46% 29.78 in 10.0 mi SSW 9.2 mph 18.4 mph N/A   Mostly Cloudy
9:15 PM 76.3 °F - 54.7 °F 47% 29.79 in 10.0 mi SSW 8.1 mph - N/A   Mostly Cloudy
9:35 PM 75.9 °F - 54.7 °F 48% 29.80 in 10.0 mi SW 9.2 mph - N/A   Scattered Clouds
9:55 PM 75.6 °F - 54.7 °F 48% 29.80 in 10.0 mi SSW 9.2 mph - N/A   Clear
10:15 PM 75.0 °F - 54.9 °F 49% 29.80 in 10.0 mi SW 9.2 mph - N/A   Clear
10:35 PM 74.5 °F - 55.2 °F 51% 29.81 in 10.0 mi SW 6.9 mph - N/A   Clear
11:15 PM 72.9 °F - 55.2 °F 54% 29.82 in 10.0 mi West 5.8 mph - N/A   Clear
11:35 PM 71.4 °F - 52.7 °F 52% 29.83 in 10.0 mi WNW 6.9 mph - N/A   Scattered Clouds
11:55 PM 69.8 °F - 49.6 °F 49% 29.84 in 10.0 mi West 5.8 mph - N/A   Mostly Cloudy